DW7500 Weather Reports


time (UTC)temp
F
wind
direction
speed
knots
gust
knots
rain 1hr
in
rain 24hr
in
rain mn
in
humidity
%
barometer
mb
20260509111501 53 215 7.0 15.6 0.00 0.00 0.00 84 998.7
20260509110057 53 238 8.7 18.2 0.00 0.00 0.00 84 998.6
20260509104559 53 249 7.8 18.2 0.00 0.00 0.00 83 998.6
20260509103102 54 265 8.7 26.9 0.00 0.00 0.00 83 998.5
20260509101548 54 220 7.8 19.1 0.00 0.00 0.00 83 998.7
20260509100048 54 217 7.8 15.6 0.00 0.00 0.00 82 998.7
20260509094554 55 230 6.1 16.5 0.00 0.00 0.00 80 999.0
20260509093042 55 225 9.6 19.1 0.00 0.00 0.00 80 999.3
20260509091549 55 217 8.7 19.1 0.00 0.00 0.00 79 999.5
20260509090051 55 244 11.3 21.7 0.00 0.00 0.00 79 999.6
20260509084537 55 230 9.6 16.5 0.00 0.00 0.00 78 999.6
20260509083035 54 234 7.0 15.6 0.00 0.00 0.00 77 999.7
20260509081532 55 251 7.0 10.4 0.00 0.00 0.00 73 999.8
20260509080032 55 186 6.1 16.5 0.00 0.00 0.00 70 999.9
20260509074528 56 227 6.1 14.8 0.00 0.00 0.00 68 1000.2
20260509073035 56 216 7.0 14.8 0.00 0.00 0.00 70 1000.5
20260509071524 57 211 7.0 13.9 0.00 0.00 0.00 70 1000.9
20260509070022 57 360 7.8 13.9 0.00 0.00 0.00 69 1001.2
20260509064518 57 207 4.3 13.9 0.00 0.00 0.00 67 1001.7
20260509063026 56 360 5.2 14.8 0.00 0.00 0.00 62 1002.0
20260509061513 56 360 7.0 14.8 0.00 0.00 0.00 58 1002.0
20260509060011 55 360 7.8 18.2 0.00 0.00 0.00 55 1002.4
20260509054506 55 360 5.2 11.3 0.00 0.00 0.00 53 1002.4
20260509053004 54 360 3.5 11.3 0.00 0.00 0.00 52 1002.5
20260509051508 54 360 3.5 9.6 0.00 0.00 0.00 54 1002.7
20260509050106 54 360 3.5 10.4 0.00 0.00 0.00 52 1002.8
20260509044607 54 360 3.5 10.4 0.00 0.00 0.00 50 1003.0
20260509043059 54 360 5.2 13.0 0.00 0.00 0.00 45 1003.1
20260509041553 54 360 4.3 9.6 0.00 0.00 0.00 40 1003.3
20260509040104 55 208 5.2 12.2 0.00 0.00 0.00 36 1003.4
20260509034547 55 195 6.1 14.8 0.00 0.00 0.00 33 1003.6
20260509033108 55 186 5.2 13.9 0.00 0.00 0.00 32 1003.7
20260509031545 55 222 7.8 13.0 0.00 0.00 0.00 31 1003.9
20260509030043 55 188 5.2 11.3 0.00 0.00 0.00 32 1004.0
20260509024555 55 198 4.3 13.0 0.00 0.00 0.00 32 1004.2
20260509023042 54 204 1.7 11.3 0.00 0.00 0.00 34 1004.3
20260509021541 54 251 3.5 8.7 0.00 0.00 0.00 37 1004.4
20260509020040 54 185 2.6 7.8 0.00 0.00 0.00 38 1004.3
20260509014540 55 154 1.7 4.3 0.00 0.00 0.00 37 1004.2
20260509013040 55 213 2.6 6.1 0.00 0.00 0.00 36 1004.2
20260509011544 56 175 3.5 6.1 0.00 0.00 0.00 34 1004.2
20260509010040 57 157 1.7 7.8 0.00 0.00 0.00 33 1004.3
20260509004537 58 219 3.5 12.2 0.00 0.00 0.00 32 1004.2
20260509003037 59 218 5.2 14.8 0.00 0.00 0.00 31 1004.2
20260509001537 60 177 5.2 11.3 0.00 0.00 0.00 30 1004.4
20260509000033 60 171 5.2 13.9 0.00 0.00 0.00 30 1004.6
20260508234532 60 184 5.2 9.6 0.00 0.00 0.00 30 1004.6
20260508233036 60 226 3.5 11.3 0.00 0.00 0.00 31 1004.8
20260508231530 61 360 6.1 11.3 0.00 0.00 0.00 29 1005.0
20260508230028 61 198 7.8 16.5 0.00 0.00 0.00 28 1005.1
20260508224526 61 224 8.7 16.5 0.00 0.00 0.00 28 1005.3
20260508223027 61 163 5.2 18.2 0.00 0.00 0.00 29 1005.3
20260508221526 62 199 8.7 13.9 0.00 0.00 0.00 29 1005.5
20260508220022 62 188 8.7 15.6 0.00 0.00 0.00 30 1005.6
20260508214526 61 217 6.1 18.2 0.00 0.00 0.00 30 1005.6
20260508213021 62 196 8.7 15.6 0.00 0.00 0.00 30 1005.7
20260508211619 62 148 7.0 13.9 0.00 0.00 0.00 30 1005.9
20260508210029 62 192 5.2 13.0 0.00 0.00 0.00 31 1006.1
20260508204516 62 226 7.8 15.6 0.00 0.00 0.00 29 1006.2
20260508203013 62 230 7.8 15.6 0.00 0.00 0.00 31 1006.5
20260508201511 61 240 9.6 15.6 0.00 0.00 0.00 35 1006.6
20260508200008 61 200 7.8 15.6 0.00 0.00 0.00 31 1006.8
20260508194508 60 360 8.7 15.6 0.00 0.00 0.00 39 1007.0
20260508193004 61 254 8.7 14.8 0.00 0.00 0.00 36 1007.0
20260508191502 61 266 9.6 14.8 0.00 0.00 0.00 34 1007.3
20260508190114 59 259 7.0 15.6 0.00 0.00 0.00 36 1007.5
20260508184601 58 225 10.4 15.6 0.00 0.00 0.00 37 1007.7
20260508183059 59 254 9.6 16.5 0.00 0.00 0.00 37 1007.9
20260508181558 59 227 8.7 15.6 0.00 0.00 0.00 37 1008.1
20260508180050 59 268 12.2 18.2 0.00 0.00 0.00 40 1008.3
20260508174549 59 228 11.3 17.4 0.00 0.00 0.00 42 1008.5
20260508173044 58 236 9.6 20.0 0.00 0.00 0.00 46 1008.8
20260508171545 57 267 8.7 16.5 0.00 0.00 0.00 46 1009.0
20260508170040 58 262 9.6 16.5 0.00 0.00 0.00 47 1009.2
20260508164536 57 245 7.0 14.8 0.00 0.00 0.00 50 1009.3
20260508163043 57 236 9.6 16.5 0.00 0.00 0.00 53 1009.5
20260508161546 57 228 10.4 16.5 0.00 0.00 0.00 51 1009.4
20260508160028 56 250 7.0 15.6 0.00 0.00 0.00 53 1009.4
20260508154526 55 263 9.6 16.5 0.00 0.00 0.00 54 1009.4
20260508153047 55 261 10.4 17.4 0.00 0.00 0.00 54 1009.5
20260508151519 55 250 7.8 14.8 0.00 0.00 0.00 55 1009.5
20260508150014 55 254 7.8 15.6 0.00 0.00 0.00 57 1009.6
20260508144510 54 267 7.8 12.2 0.00 0.00 0.00 57 1009.6
20260508143009 54 258 7.8 13.0 0.00 0.00 0.00 59 1009.6
20260508141507 54 257 9.6 13.0 0.00 0.00 0.00 56 1009.7
20260508140006 53 273 4.3 10.4 0.00 0.00 0.00 61 1009.6
20260508134600 53 244 7.0 10.4 0.00 0.00 0.00 62 1009.6
20260508133102 52 225 4.3 7.8 0.00 0.00 0.00 65 1009.8
20260508131552 49 140 3.5 10.4 0.00 0.00 0.00 75 1009.9
20260508130047 45 229 2.6 7.0 0.00 0.00 0.00 92 1010.0
20260508124543 42 178 2.6 6.1 0.00 0.00 0.00 98 1010.2
20260508123045 39 219 1.7 4.3 0.00 0.00 0.00 98 1010.1
20260508121535 37 189 0.0 2.6 0.00 0.00 0.00 99 1010.0
20260508120031 33 189 0.0 1.7 0.00 0.00 0.00 98 1010.0
20260508114527 31 360 0.0 0.0 0.00 0.00 0.00 97 1009.9
20260508113023 31 360 0.0 0.0 0.00 0.00 0.00 96 1009.9